Weather History for Corning, AR

Change the Weather History Date:

Tuesday, August 7, 2012

  Actual Average (KARG) Record (KARG)
Temperature  
Mean Temperature 80 °F -  
Max Temperature 95 °F 85 °F 96 °F (1999)
Min Temperature 66 °F 67 °F 57 °F (1997)
Cooling Degree Days 16    
Growing Degree Days 30 (Base 50)    
Moisture  
Dew Point 65 °F    
Average Humidity 64    
Maximum Humidity 94    
Minimum Humidity 30    
Precipitation  
Precipitation 0.00 in - - ()
Sea Level Pressure  
Sea Level Pressure 29.98 in    
Wind  
Wind Speed 3 mph (ENE)    
Max Wind Speed 9 mph    
Max Gust Speed -    
Visibility 10 miles    
Events      
Averages and records for this station are not official NWS values.
T = Trace of Precipitation, MM = Missing Value Source: NWS Daily Summary

Daily Weather History Graph

Daily Weather History Graph

Search for Another Location

Airport:

Trip Planner

Search our weather history database for the weather conditions in past years. The results will help you decide how hot, cold, wet, or windy it might be!

Date:

Astronomy

Aug. 07, 2012 Rise Set
Actual Time 6:14 AM CDT 8:01 PM CDT
Civil Twilight 5:46 AM CDT 8:29 PM CDT
Nautical Twilight 5:12 AM CDT 9:03 PM CDT
Astronomical Twilight 4:36 AM CDT 9:39 PM CDT
Moon 10:55 PM CDT (8/7) 11:49 AM CDT (8/7)
Length of Visible Light 14h 43m
Length of Day
13h 47m
Waning Gibbous, 69% of the Moon is Illuminated
Aug 7
Waning Gibbous
Aug 9
Last Quarter
Aug 17
New
Aug 24
First Quarter
Aug 31
Full

Hourly Weather History & Observations

Time (CDT) Temp. Heat Index Dew Point Humidity Pressure Visibility Wind Dir Wind Speed Gust Speed Precip Events Conditions
12:15 AM 71.6 °F - 66.2 °F 83% 30.00 in 10.0 mi Calm Calm - N/A   Clear
12:35 AM 69.8 °F - 66.2 °F 88% 29.99 in 10.0 mi Calm Calm - N/A   Clear
12:55 AM 69.8 °F - 66.2 °F 88% 30.00 in 10.0 mi Calm Calm - N/A   Clear
1:15 AM 71.6 °F - 66.2 °F 83% 29.99 in 10.0 mi NNE 3.5 mph - N/A   Clear
1:35 AM 71.6 °F - 66.2 °F 83% 29.99 in 10.0 mi NNE 3.5 mph - N/A   Clear
1:55 AM 69.8 °F - 66.2 °F 88% 29.98 in 10.0 mi NE 3.5 mph - N/A   Clear
2:15 AM 68.0 °F - 66.2 °F 94% 29.98 in 10.0 mi Calm Calm - N/A   Clear
2:35 AM 68.0 °F - 64.4 °F 88% 29.98 in 10.0 mi NW 3.5 mph - N/A   Clear
2:55 AM 69.8 °F - 64.4 °F 83% 29.98 in 10.0 mi Calm Calm - N/A   Clear
3:35 AM 68.0 °F - 64.4 °F 88% 29.98 in 10.0 mi NNW 4.6 mph - N/A   Clear
3:55 AM 66.2 °F - 64.4 °F 94% 29.99 in 10.0 mi NW 8.1 mph - N/A   Clear
4:15 AM 66.2 °F - 64.4 °F 94% 29.99 in 10.0 mi WNW 4.6 mph - N/A   Clear
4:35 AM 66.2 °F - 64.4 °F 94% 29.99 in 10.0 mi WNW 4.6 mph - N/A   Clear
4:55 AM 66.2 °F - 64.4 °F 94% 29.99 in 10.0 mi NW 4.6 mph - N/A   Clear
5:15 AM 66.2 °F - 62.6 °F 88% 29.99 in 10.0 mi Calm Calm - N/A   Clear
5:35 AM 66.2 °F - 62.6 °F 88% 29.99 in 10.0 mi Calm Calm - N/A   Clear
5:55 AM 66.2 °F - 62.6 °F 88% 30.00 in 10.0 mi Calm Calm - N/A   Clear
6:15 AM 66.2 °F - 62.6 °F 88% 30.01 in 10.0 mi North 3.5 mph - N/A   Clear
6:35 AM 66.2 °F - 62.6 °F 88% 30.01 in 10.0 mi Calm Calm - N/A   Clear
6:55 AM 66.2 °F - 64.4 °F 94% 30.01 in 10.0 mi North 3.5 mph - N/A   Clear
7:15 AM 68.0 °F - 64.4 °F 88% 30.02 in 10.0 mi Calm Calm - N/A   Clear
7:35 AM 71.6 °F - 64.4 °F 78% 30.02 in 10.0 mi Calm Calm - N/A   Clear
7:55 AM 71.6 °F - 64.4 °F 78% 30.02 in 10.0 mi Calm Calm - N/A   Clear
8:15 AM 73.4 °F - 66.2 °F 78% 30.02 in 10.0 mi ENE 3.5 mph - N/A   Clear
8:35 AM 75.2 °F - 66.2 °F 73% 30.02 in 10.0 mi NE 4.6 mph - N/A   Clear
8:55 AM 77.0 °F - 66.2 °F 69% 30.03 in 10.0 mi NE 5.8 mph - N/A   Clear
9:15 AM 78.8 °F - 66.2 °F 65% 30.03 in 10.0 mi NE 5.8 mph - N/A   Clear
9:35 AM 80.6 °F 83.2 °F 68.0 °F 65% 30.03 in 10.0 mi NE 5.8 mph - N/A   Clear
9:55 AM 82.4 °F 84.6 °F 66.2 °F 58% 30.02 in 10.0 mi NNE 6.9 mph - N/A   Clear
10:15 AM 84.2 °F 86.6 °F 66.2 °F 55% 30.03 in 10.0 mi NE 5.8 mph - N/A   Clear
10:35 AM 84.2 °F 86.6 °F 66.2 °F 55% 30.03 in 10.0 mi NNE 6.9 mph - N/A   Clear
10:55 AM 86.0 °F 89.4 °F 68.0 °F 55% 30.03 in 10.0 mi NNE 5.8 mph - N/A   Clear
11:15 AM 86.0 °F 89.4 °F 68.0 °F 55% 30.02 in 10.0 mi ENE 3.5 mph - N/A   Clear
11:35 AM 87.8 °F 91.4 °F 68.0 °F 52% 30.02 in 10.0 mi Calm Calm - N/A   Clear
11:55 AM 89.6 °F 94.7 °F 69.8 °F 52% 30.02 in 10.0 mi Calm Calm - N/A   Clear
12:15 PM 89.6 °F 92.2 °F 66.2 °F 46% 30.01 in 10.0 mi Calm Calm - N/A   Clear
12:35 PM 91.4 °F 92.1 °F 62.6 °F 38% 30.01 in 10.0 mi Calm Calm - N/A   Clear
12:55 PM 91.4 °F 93.2 °F 64.4 °F 41% 30.00 in 10.0 mi ESE 3.5 mph - N/A   Clear
1:15 PM 91.4 °F 93.2 °F 64.4 °F 41% 30.00 in 10.0 mi SE 4.6 mph - N/A   Clear
1:35 PM 91.4 °F 92.1 °F 62.6 °F 38% 29.99 in 10.0 mi SSE 3.5 mph - N/A   Clear
1:55 PM 91.4 °F 92.1 °F 62.6 °F 38% 29.98 in 10.0 mi SE 5.8 mph - N/A   Clear
2:15 PM 93.2 °F 92.6 °F 59.0 °F 32% 29.98 in 10.0 mi ESE 4.6 mph - N/A   Clear
2:35 PM 93.2 °F 93.3 °F 60.8 °F 34% 29.97 in 10.0 mi SE 6.9 mph - N/A   Clear
2:55 PM 93.2 °F 91.9 °F 57.2 °F 30% 29.97 in 10.0 mi ESE 5.8 mph - N/A   Clear
3:15 PM 93.2 °F 91.9 °F 57.2 °F 30% 29.96 in 10.0 mi ESE 3.5 mph - N/A   Clear
3:35 PM 95.0 °F 95.2 °F 60.8 °F 32% 29.95 in 10.0 mi NE 9.2 mph - N/A   Clear
3:55 PM 95.0 °F 96.0 °F 62.6 °F 34% 29.95 in 10.0 mi NE 6.9 mph - N/A   Clear
4:15 PM 93.2 °F 93.3 °F 60.8 °F 34% 29.94 in 10.0 mi NE 4.6 mph - N/A   Clear
4:35 PM 95.0 °F 94.4 °F 59.0 °F 30% 29.94 in 10.0 mi North 4.6 mph - N/A   Clear
4:55 PM 93.2 °F 92.6 °F 59.0 °F 32% 29.93 in 10.0 mi SE 3.5 mph - N/A   Clear
5:15 PM 93.2 °F 94.9 °F 64.4 °F 38% 29.93 in 10.0 mi SE 4.6 mph - N/A   Clear
5:35 PM 93.2 °F 94.9 °F 64.4 °F 38% 29.93 in 10.0 mi SE 5.8 mph - N/A   Clear
5:55 PM 91.4 °F 93.2 °F 64.4 °F 41% 29.93 in 10.0 mi ESE 6.9 mph - N/A   Clear
6:15 PM 91.4 °F 93.2 °F 64.4 °F 41% 29.93 in 10.0 mi ESE 6.9 mph - N/A   Clear
6:35 PM 89.6 °F 92.2 °F 66.2 °F 46% 29.93 in 10.0 mi ESE 4.6 mph - N/A   Clear
6:55 PM 89.6 °F 93.4 °F 68.0 °F 49% 29.93 in 10.0 mi SE 5.8 mph - N/A   Clear
7:15 PM 87.8 °F 89.4 °F 64.4 °F 46% 29.93 in 10.0 mi SE 4.6 mph - N/A   Clear
7:35 PM 86.0 °F 88.2 °F 66.2 °F 51% 29.93 in 10.0 mi Calm Calm - N/A   Clear
7:55 PM 82.4 °F 85.4 °F 68.0 °F 62% 29.93 in 10.0 mi Calm Calm - N/A   Clear
8:15 PM 84.2 °F 86.6 °F 66.2 °F 55% 29.94 in 10.0 mi SSW 4.6 mph - N/A   Clear
8:35 PM 82.4 °F 84.6 °F 66.2 °F 58% 29.94 in 10.0 mi SE 3.5 mph - N/A   Clear
8:55 PM 80.6 °F 83.2 °F 68.0 °F 65% 29.95 in 10.0 mi Calm Calm - N/A   Clear
9:15 PM 80.6 °F 82.7 °F 66.2 °F 61% 29.95 in 10.0 mi ENE 3.5 mph - N/A   Clear
9:35 PM 80.6 °F 82.3 °F 64.4 °F 58% 29.95 in 9.0 mi Calm Calm - N/A   Clear
9:55 PM 75.2 °F - 66.2 °F 73% 29.96 in 10.0 mi Calm Calm - N/A   Clear
10:15 PM 75.2 °F - 68.0 °F 78% 29.97 in 9.0 mi Calm Calm - N/A   Clear
10:35 PM 73.4 °F - 68.0 °F 83% 29.97 in 10.0 mi Calm Calm - N/A   Clear
11:35 PM 73.4 °F - 68.0 °F 83% 29.96 in 10.0 mi Calm Calm - N/A   Clear
11:55 PM 73.4 °F - 68.0 °F 83% 29.97 in 10.0 mi Calm Calm - N/A   Clear